Location: Unspecified
(48.2082°N, 0.0000°E)
Time: 02:50:15
(UTC+00:00)

Altair - Visible Passes

Search period start: 16 June 2019 00:00
Search period end: 26 June 2019 00:00
Orbit: 1501 x 1683 km, 47.2° (Epoch: 14 June)

Date Brightness Start Highest point End Pass type
(mag) Time Alt. Az. Time Alt. Az. Time Alt. Az.
16 Jun 7.6 01:32:31 10° W 01:42:32 79° SSW 01:52:43 10° ESE visible
16 Jun 7.8 20:59:10 10° SW 21:08:12 48° SE 21:17:34 10° ENE visible
16 Jun 7.5 23:02:37 10° WSW 23:12:25 81° SSE 23:22:34 10° E visible
17 Jun 7.6 01:07:20 10° W 01:17:19 81° SSW 01:27:31 10° ESE visible
17 Jun 7.9 03:12:09 10° WNW 03:21:38 48° SW 03:31:11 10° SE visible
17 Jun 7.8 20:34:12 10° SSW 20:43:06 45° SE 20:52:19 10° ENE visible
17 Jun 7.5 22:37:28 10° WSW 22:47:13 79° SSE 22:57:20 10° E visible
18 Jun 7.6 00:42:09 10° W 00:52:07 82° S 01:02:18 10° ESE visible
18 Jun 7.8 02:46:56 10° WNW 02:56:30 51° SSW 03:06:09 10° SE visible
18 Jun 7.5 22:12:20 10° WSW 22:22:02 78° SSE 22:32:06 10° E visible
19 Jun 7.6 00:16:58 10° W 00:26:54 83° S 00:37:06 10° ESE visible
19 Jun 7.7 02:21:44 10° WNW 02:31:22 54° SSW 02:41:06 10° SE visible
19 Jun 7.5 21:47:12 10° WSW 21:56:51 76° SSE 22:06:52 10° E visible
19 Jun 7.6 23:51:47 10° W 00:01:41 84° S 00:11:52 10° E visible
20 Jun 7.7 01:56:33 10° WNW 02:06:13 56° SSW 02:16:02 10° SE visible
20 Jun 7.5 21:22:05 10° WSW 21:31:40 73° SSE 21:41:39 10° E visible
20 Jun 7.6 23:26:37 10° W 23:36:29 85° S 23:46:39 10° E visible
21 Jun 7.6 01:31:22 10° WNW 01:41:04 59° SSW 01:50:57 10° SE visible
21 Jun 7.6 20:56:59 10° WSW 21:06:30 71° SSE 21:16:25 10° ENE visible
21 Jun 7.6 23:01:26 10° W 23:11:16 85° S 23:21:25 10° E visible
22 Jun 7.6 01:06:11 10° WNW 01:15:54 62° SSW 01:25:50 10° SE visible
22 Jun 8.3 03:11:35 10° W 03:19:23 27° SW 03:27:15 10° S visible
22 Jun 7.6 20:31:53 10° WSW 20:41:21 69° SSE 20:51:12 10° ENE visible
22 Jun 7.6 22:36:17 10° W 22:46:03 86° S 22:56:12 10° E visible
23 Jun 7.6 00:41:00 10° WNW 00:50:44 64° SSW 01:00:43 10° SE visible
23 Jun 8.3 02:46:15 10° W 02:54:19 29° SW 03:02:28 10° S visible
23 Jun 7.6 22:11:07 10° W 22:20:51 86° S 22:30:58 10° E visible
24 Jun 7.5 00:15:49 10° WNW 00:25:33 67° SSW 00:35:34 10° SE visible
24 Jun 8.2 02:20:58 10° WNW 02:29:15 31° SW 02:37:40 10° SSE visible
24 Jun 7.6 21:45:57 10° W 21:55:39 86° S 22:05:43 10° E visible
24 Jun 7.5 23:50:39 10° WNW 00:00:23 69° SSW 00:10:25 10° ESE visible
25 Jun 8.1 01:55:41 10° WNW 02:04:10 33° SW 02:12:48 10° SSE visible
25 Jun 7.6 21:20:47 10° W 21:30:26 85° S 21:40:29 10° E visible
25 Jun 7.5 23:25:28 10° WNW 23:35:13 72° SSW 23:45:15 10° ESE visible
